Location: Unspecified
(0.0000°N, 0.0000°E)
Time: 08:44:53
(UTC+00:00)

Vanguard 2 - All Passes

Search period start: 27 April 2018 00:00
Search period end: 07 May 2018 00:00
Orbit: 553 x 2939 km, 32.9° (Epoch: 26 April)

Date Brightness Start Highest point End Pass type
(mag) Time Alt. Az. Time Alt. Az. Time Alt. Az.
27 Apr - 04:15:11 10° NNW 04:18:48 34° NE 04:22:57 10° ESE visible
27 Apr - 06:23:27 10° W 06:27:20 26° SSW 06:32:37 10° SSE daylight
27 Apr - 12:58:53 10° SSW 13:09:35 22° SSE 13:21:55 10° ESE daylight
27 Apr - 15:07:41 10° SW 15:24:15 53° SE 15:40:22 10° ENE daylight
27 Apr - 17:19:34 10° WSW 17:37:38 72° NW 17:51:43 10° NE daylight
27 Apr - 19:37:20 10° W 19:49:46 27° NW 19:59:04 10° NNE visible
28 Apr - 04:32:52 10° NW 04:36:47 72° NE 04:41:30 10° ESE visible
28 Apr - 06:42:50 10° WSW 06:45:54 16° SSW 06:49:41 10° SSE daylight
28 Apr - 11:11:47 10° S 11:13:18 10° SSE 11:14:53 10° SSE daylight
28 Apr - 13:16:27 10° SSW 13:28:41 28° SSE 13:42:47 10° E daylight
28 Apr - 15:25:36 10° SW 15:42:47 66° SE 15:59:12 10° ENE daylight
28 Apr - 17:38:27 10° WSW 17:55:55 57° NW 18:09:33 10° NE daylight
28 Apr - 19:58:24 10° WNW 20:08:22 20° NNW 20:16:11 10° N visible
29 Apr - 02:44:47 10° N 02:46:34 12° NNE 02:48:17 10° NE visible
29 Apr - 04:50:59 10° WNW 04:54:51 54° SSW 04:59:34 10° SE visible
29 Apr - 11:27:41 10° S 11:32:53 13° SSE 11:38:47 10° SE daylight
29 Apr - 13:34:02 10° SSW 13:47:31 36° SSE 14:03:03 10° E daylight
29 Apr - 15:43:41 10° SW 16:01:13 82° SE 16:17:43 10° ENE daylight
29 Apr - 17:57:44 10° WSW 18:14:16 45° NW 18:27:15 10° NNE visible
29 Apr - 20:20:26 10° WNW 20:27:13 14° NNW 20:32:55 10° N visible
30 Apr - 03:01:23 10° NNW 03:04:48 24° NNE 03:08:03 10° E visible
30 Apr - 05:09:34 10° W 05:13:02 27° SSW 05:17:12 10° SSE visible
30 Apr - 11:44:39 10° S 11:52:12 17° SSE 12:01:14 10° ESE daylight
30 Apr - 13:51:40 10° SW 14:06:08 46° SE 14:22:45 10° ENE daylight
30 Apr - 16:01:59 10° WSW 16:19:36 82° NW 16:35:58 10° NE daylight
30 Apr - 18:17:33 10° W 18:32:44 35° NW 18:44:48 10° NNE visible
30 Apr - 20:44:29 10° NNW 20:46:22 10° NNW 20:48:10 10° NNW visible
01 May - 03:18:51 10° NW 03:22:55 48° NE 03:26:48 10° ESE visible
01 May - 05:28:55 10° WSW 05:31:23 15° SSW 05:34:13 10° S visible
01 May - 12:01:51 10° SSW 12:11:14 22° SSE 12:22:53 10° ESE daylight
01 May - 14:09:26 10° SW 14:24:36 58° SE 14:41:57 10° ENE daylight
01 May - 16:20:34 10° WSW 16:37:59 67° NW 16:53:59 10° NE daylight
01 May - 18:37:57 10° W 18:51:23 27° NNW 19:02:16 10° NNE visible
02 May - 01:30:20 10° N 01:32:08 12° NNE 01:33:46 10° NE night (unlit)
02 May - 03:36:49 10° WNW 03:40:58 77° SW 03:45:01 10° SE visible
02 May - 12:19:10 10° SSW 12:30:00 29° SE 12:43:46 10° E daylight
02 May - 14:27:20 10° SW 14:43:00 72° SE 15:00:46 10° ENE daylight
02 May - 16:39:29 10° WSW 16:56:25 53° NW 17:11:51 10° NE daylight
02 May - 18:59:03 10° WNW 19:10:18 21° NNW 19:19:37 10° NNE visible
03 May - 01:46:45 10° NNW 01:50:37 20° NNE 01:53:48 10° ENE night (unlit)
03 May - 03:55:15 10° WNW 03:59:01 35° SW 04:02:47 10° SSE visible
03 May - 10:33:07 10° SSE 10:35:31 11° SSE 10:38:05 10° SE daylight
03 May - 12:36:37 10° SSW 12:48:31 38° SE 13:03:59 10° E daylight
03 May - 14:45:25 10° SW 15:01:21 88° SE 15:19:15 10° NE daylight
03 May - 16:58:50 10° W 17:15:00 42° NNW 17:29:35 10° NNE daylight
03 May - 19:20:51 10° WNW 19:29:31 16° NNW 19:36:54 10° N visible
04 May - 02:04:07 10° NW 02:08:56 37° NNE 02:12:43 10° E night (unlit)
04 May - 04:14:20 10° WSW 04:17:08 18° SSW 04:19:58 10° SSE visible
04 May - 10:48:36 10° S 10:54:30 15° SSE 11:01:40 10° ESE daylight
04 May - 12:54:12 10° SW 13:06:52 49° SE 13:23:37 10° ENE daylight
04 May - 15:03:45 10° WSW 15:19:45 76° NW 15:37:28 10° NE daylight
04 May - 17:18:41 10° W 17:33:44 33° NNW 17:47:14 10° NNE daylight
04 May - 19:43:18 10° NW 19:49:00 13° NNW 19:54:04 10° N visible
05 May - 00:14:14 10° N 00:17:26 13° NNE 00:20:08 10° NE night (unlit)
05 May - 02:21:58 10° NW 02:27:06 75° NE 02:31:05 10° ESE night (unlit)
05 May - 11:05:22 10° S 11:13:12 21° SE 11:23:26 10° ESE daylight
05 May - 13:11:56 10° SW 13:25:08 62° SE 13:42:46 10° ENE daylight
05 May - 15:22:22 10° WSW 15:38:14 61° NW 15:55:29 10° NE daylight
05 May - 17:39:07 10° WNW 17:52:43 26° NNW 18:04:51 10° NNE daylight
05 May - 20:06:23 10° NNW 20:08:42 10° NNW 20:10:53 10° N visible
06 May - 00:31:00 10° NNW 00:36:09 21° NNE 00:39:59 10° ENE night (unlit)
06 May - 02:40:14 10° WNW 02:45:08 53° SW 02:49:01 10° SE night (unlit)
06 May - 11:22:29 10° SSW 11:31:39 29° SE 11:44:16 10° E daylight
06 May - 13:29:50 10° SW 13:43:25 78° SE 14:01:31 10° ENE daylight
06 May - 15:41:19 10° WSW 15:56:51 49° NNW 16:13:23 10° NE daylight
06 May - 18:00:09 10° WNW 18:11:59 21° NNW 18:22:30 10° NNE visible
06 May - 22:40:34 10° N 22:43:18 11° NNE 22:45:44 10° NNE visible
